Wind_Speed
42 39 39 40 38 36 36 34 34 31 29 25 27 27 24 23 22 20 18 15 13 10 8 13 16 14 15 13 11 12 10 9 12 15 16 18 18 20 23 21 23 23 23
45 42 41 41 40 41 40 39 39 36 35 36 35 33 29 27 25 23 19 23 19 14 11 10 12 12 10 10 10 11 12 12 14 20 21 19 18 16 20 23 24 24 25
45 44 43 44 43 43 43 42 42 41 40 39 40 38 34 32 28 27 21 18 19 18 16 13 13 13 14 14 14 15 16 16 16 17 20 20 21 20 22 23 24 26 21
44 44 45 46 46 45 43 43 41 43 42 42 41 40 38 35 32 30 25 19 21 21 20 17 15 16 16 16 15 15 15 16 17 19 21 18 20 19 25 24 23 21 23
45 45 46 46 46 45 44 43 41 41 43 43 40 41 39 37 35 34 30 21 23 23 22 21 17 18 16 17 18 19 20 21 23 25 21 21 26 22 24 29 30 29 29
46 48 43 42 44 44 43 41 40 39 43 43 43 41 41 41 38 36 36 24 23 24 24 22 19 18 20 18 21 19 21 23 25 26 26 28 27 28 28 27 25 24 28
46 47 46 43 44 44 40 38 39 40 40 41 40 38 39 39 38 36 32 24 20 22 24 21 20 20 20 18 21 18 22 25 23 21 23 24 25 23 23 24 26 29 33
47 43 44 45 46 43 38 37 36 39 40 40 38 35 33 36 38 35 27 20 20 23 23 22 19 20 19 23 24 23 25 25 23 22 21 21 22 23 23 27 32 31 26
45 46 43 43 43 41 37 36 34 33 35 36 33 30 30 35 33 36 28 26 26 26 29 24 22 21 25 23 22 24 25 21 21 19 23 24 24 24 26 22 23 24 27
46 48 38 37 37 38 36 33 31 31 28 27 29 29 28 29 31 30 27 27 24 19 23 22 21 22 22 20 21 23 23 20 18 20 22 24 26 26 16 20 24 28 27
37 37 36 37 37 34 31 29 29 27 25 25 25 24 23 22 26 28 25 21 20 19 16 20 19 17 18 19 19 21 20 20 21 22 24 23 15 18 15 15 13 15 17
32 32 33 34 34 35 30 26 23 21 22 21 20 20 18 19 18 23 20 18 17 23 19 18 17 20 19 21 18 21 20 21 22 22 17 13 17 15 17 20 22 25 25
31 31 31 31 28 25 24 24 22 21 18 18 18 17 14 15 19 20 18 18 17 19 19 19 16 18 21 17 18 17 19 19 18 10 14 16 18 19 21 21 20 21 22
31 32 32 29 27 22 19 20 19 19 17 13 11 13 15 14 16 16 12 15 17 18 13 12 14 16 15 17 17 9 12 9 8 12 16 14 13 18 18 18 20 23 25
30 29 27 24 22 22 19 15 15 15 14 11 11 13 11 13 13 7 9 10 10 10 9 10 9 10 12 12 11 12 10 9 10 10 15 16 18 16 18 18 20 19 21
27 24 21 23 19 17 20 18 16 14 14 13 11 10 10 9 7 5 6 7 8 8 7 9 10 12 16 15 10 9 10 12 11 13 14 17 17 17 17 17 18 19 22
19 19 17 18 16 17 19 16 17 15 13 12 12 10 7 4 8 7 6 6 7 8 11 15 12 12 9 11 14 8 8 7 12 14 14 13 15 14 15 16 17 19 20
15 14 20 16 19 14 11 12 10 13 11 13 11 10 8 7 7 8 7 6 7 8 6 9 9 8 11 14 13 12 9 10 10 11 13 14 10 13 14 16 17 19 21
21 17 15 17 19 18 13 12 15 12 15 5 9 9 9 9 9 9 8 8 6 6 6 5 5 8 9 8 8 9 11 13 13 12 10 5 10 11 14 15 17 18 20
17 18 17 14 15 15 12 11 10 18 18 9 7 7 10 12 11 8 9 8 6 3 6 5 6 9 9 10 11 11 11 8 6 7 8 9 10 11 12 15 16 18 19
9 16 15 18 15 12 10 10 11 14 13 11 11 8 5 6 8 8 5 2 7 5 7 6 7 7 7 9 9 7 5 6 6 7 7 8 9 10 12 13 14 16 17
8 11 16 12 16 15 11 9 8 9 16 16 18 11 10 9 9 13 13 9 11 10 9 6 7 6 6 7 8 8 7 6 6 8 7 6 7 8 12 9 14 15 15
6 15 10 13 17 17 12 9 6 5 5 6 10 14 18 15 9 9 13 14 13 11 10 8 7 8 8 10 10 8 7 6 8 9 8 6 4 8 10 11 13 12 14
10 12 9 10 10 9 9 11 7 5 1 6 8 10 10 9 9 10 11 13 15 15 14 15 13 8 8 11 12 7 6 10 13 12 9 6 1 8 6 10 12 8 14
4 5 6 3 7 9 7 6 7 8 10 7 9 9 9 12 15 15 13 13 14 16 17 12 13 10 12 14 9 11 13 15 16 15 12 9 2 4 10 6 11 8 12
3 3 5 8 6 5 6 8 6 9 12 11 12 14 13 12 12 15 16 18 17 13 15 11 13 12 12 11 11 13 14 13 12 10 9 6 2 4 10 3 8 9 9
Wind_Direction
222 223 221 223 225 221 218 217 224 216 211 226 235 241 238 225 221 215 204 212 235 222 203 215 219 239 241 229 239 258 261 275 275 280 281 278 280 289 294 297 297 291 301
219 221 221 223 226 228 223 223 225 230 222 222 231 239 240 232 225 218 204 208 237 241 229 220 222 230 248 254 254 261 264 259 269 281 278 285 284 291 289 291 306 291 288
213 218 219 223 227 230 232 227 229 233 233 234 235 237 240 237 231 223 219 226 240 233 230 225 229 230 230 240 253 266 264 265 274 281 282 284 290 285 288 295 298 292 283
209 213 219 223 227 231 233 235 231 233 237 239 239 242 241 241 235 227 223 234 239 230 229 232 229 229 235 247 257 269 279 282 272 275 287 287 290 290 295 291 296 293 289
207 214 218 223 227 229 230 233 235 233 239 242 243 242 240 237 236 230 225 237 236 235 237 237 230 231 241 253 269 276 281 288 282 275 274 275 276 284 283 290 292 292 294
209 215 220 221 224 227 228 227 230 229 234 241 243 242 240 240 240 234 227 235 238 241 244 241 233 224 240 250 262 273 284 279 280 279 279 277 278 280 285 288 290 293 294
209 214 216 220 223 225 226 227 226 228 237 241 245 241 242 242 242 234 232 230 232 240 248 250 242 234 240 261 272 278 284 282 277 280 276 283 291 295 291 291 299 296 291
206 213 210 215 219 219 223 226 229 232 234 241 241 245 240 238 238 229 226 221 232 237 243 241 241 248 247 255 265 282 293 289 282 282 287 297 290 293 292 296 297 299 306
208 208 209 212 211 214 221 228 232 230 235 236 245 248 242 239 240 235 236 236 261 265 239 235 244 256 265 266 265 281 287 280 279 281 288 288 286 288 296 295 298 296 298
206 206 203 201 206 217 225 223 226 231 235 234 243 246 247 247 234 235 245 257 257 242 238 238 249 256 266 273 276 284 279 277 273 270 272 279 283 294 290 295 294 283 289
201 195 196 197 205 217 221 221 225 223 228 232 235 241 249 251 237 239 248 250 255 227 235 249 250 255 261 282 292 289 276 281 281 280 284 289 296 303 304 304 300 295 292
191 185 186 197 205 211 215 217 208 215 220 218 226 235 241 242 232 235 243 257 235 216 232 252 264 267 276 290 286 278 277 285 287 290 293 297 298 293 289 284 283 286 294
175 177 184 190 192 206 211 203 203 206 216 217 225 234 231 226 230 239 247 252 228 228 243 261 265 271 280 272 276 276 293 293 296 289 296 281 279 288 292 302 307 307 306
169 168 175 183 188 196 200 206 202 207 210 213 207 214 223 231 244 252 238 236 235 241 239 255 269 277 277 281 280 291 309 302 303 288 303 310 307 292 303 309 311 310 311
168 172 179 178 181 189 189 184 192 195 194 197 207 223 216 221 228 225 234 229 222 220 241 261 280 297 299 281 272 295 304 294 289 281 283 289 290 307 307 311 312 316 318
175 173 172 165 171 175 176 172 175 180 191 198 209 222 206 207 204 198 200 203 205 202 201 233 256 275 275 256 254 273 292 288 266 269 276 283 306 307 311 314 319 320 318
154 165 160 164 160 172 175 186 177 174 179 195 198 194 186 201 190 197 209 200 205 220 231 246 261 266 259 273 287 288 285 268 283 293 307 301 298 305 310 314 319 320 322
143 140 145 149 141 171 169 163 177 182 183 206 210 218 219 211 196 198 194 212 236 252 261 254 237 268 279 275 268 260 264 262 271 278 279 282 301 307 311 315 319 320 321
154 146 155 158 158 157 185 175 186 161 175 178 186 204 206 206 198 194 203 216 186 272 265 261 243 262 260 270 272 261 263 272 280 297 321 337 307 308 313 318 320 322 323
154 157 151 165 152 155 176 185 194 168 180 209 200 219 222 214 209 218 229 225 189 226 250 248 273 270 256 257 259 261 273 293 305 305 308 303 309 309 316 320 320 323 328
167 169 150 166 163 174 180 191 199 202 203 207 195 228 150 200 232 240 213 234 193 219 259 244 249 266 268 275 282 277 278 287 289 285 283 291 305 316 323 315 326 328 332
185 188 173 186 174 171 178 184 195 217 203 189 192 207 208 208 202 223 223 209 222 221 229 258 252 250 261 247 245 255 254 266 270 269 270 289 306 323 314 331 331 332 337
227 167 149 150 172 190 167 182 170 171 145 167 196 197 200 209 206 242 228 216 218 225 252 261 257 260 267 274 275 251 243 215 253 257 273 278 314 321 324 333 334 327 339
112 149 166 165 172 166 174 191 204 181 234 183 188 200 215 218 214 245 221 218 231 238 260 274 265 252 255 253 266 270 250 230 247 258 282 290 333 315 341 331 334 329 347
194 188 123 100 182 192 192 210 228 225 225 215 212 224 202 210 232 232 222 241 254 270 275 270 262 253 255 266 244 243 249 252 265 278 283 282 254 6 318 299 338 349 352
157 127 193 204 230 217 254 235 239 220 216 239 223 209 220 234 249 236 221 235 245 262 259 252 242 230 233 259 272 257 265 272 271 272 275 260 143 332 298 336 344 348 350
Height
1490 1496 1502 1506 1509 1515 1519 1522 1525 1530 1533 1532 1533 1535 1537 1539 1542 1545 1547 1549 1547 1547 1546 1549 1553 1556 1557 1558 1560 1560 1560 1561 1560 1560 1559 1558 1557 1555 1554 1553 1551 1549 1547
1482 1489 1494 1498 1503 1506 1511 1515 1519 1522 1526 1529 1528 1529 1531 1534 1537 1540 1542 1544 1544 1543 1544 1544 1549 1551 1551 1554 1556 1557 1556 1556 1556 1554 1554 1553 1552 1550 1549 1548 1546 1544 1542
1476 1481 1486 1490 1494 1498 1502 1508 1511 1514 1517 1520 1521 1524 1526 1528 1531 1534 1537 1538 1540 1540 1541 1538 1542 1546 1548 1549 1549 1550 1550 1549 1550 1550 1548 1548 1547 1545 1544 1542 1540 1537 1535
1469 1473 1477 1480 1485 1489 1495 1499 1504 1507 1510 1512 1516 1518 1520 1523 1526 1529 1531 1534 1536 1536 1537 1536 1537 1541 1543 1544 1545 1546 1546 1544 1543 1543 1542 1541 1540 1540 1538 1535 1533 1531 1529
1461 1464 1467 1473 1478 1483 1488 1492 1496 1500 1501 1503 1507 1509 1513 1514 1517 1521 1525 1527 1529 1532 1532 1531 1531 1535 1539 1541 1542 1540 1540 1539 1538 1537 1536 1536 1534 1533 1531 1528 1525 1524 1522
1453 1456 1462 1467 1471 1474 1480 1485 1489 1492 1494 1496 1499 1501 1502 1507 1513 1512 1516 1519 1522 1525 1527 1527 1527 1529 1532 1533 1535 1536 1537 1535 1533 1532 1532 1529 1528 1527 1524 1522 1519 1517 1514
1445 1450 1455 1459 1462 1467 1473 1478 1482 1486 1488 1490 1493 1497 1499 1503 1506 1511 1512 1514 1517 1519 1521 1523 1525 1525 1527 1529 1530 1530 1529 1528 1525 1525 1523 1523 1523 1521 1518 1516 1514 1511 1507
1437 1443 1448 1452 1455 1460 1467 1471 1476 1479 1482 1485 1489 1492 1495 1496 1499 1504 1509 1512 1512 1515 1514 1516 1519 1522 1522 1522 1524 1523 1523 1520 1519 1518 1516 1516 1516 1515 1512 1511 1508 1504 1500
1427 1435 1440 1445 1449 1455 1460 1465 1470 1475 1478 1481 1484 1486 1489 1491 1495 1498 1502 1505 1507 1507 1510 1511 1513 1516 1516 1517 1517 1517 1515 1513 1515 1514 1512 1511 1510 1508 1507 1505 1502 1499 1495
1420 1426 1433 1440 1445 1451 1456 1461 1466 1470 1473 1477 1479 1481 1485 1487 1489 1493 1495 1498 1498 1497 1500 1504 1507 1508 1510 1511 1511 1510 1509 1509 1509 1508 1506 1505 1505 1503 1502 1500 1496 1493 1492
1418 1422 1429 1435 1441 1447 1451 1456 1459 1464 1469 1472 1474 1477 1481 1484 1486 1489 1490 1492 1493 1496 1498 1498 1500 1503 1504 1505 1505 1505 1505 1506 1504 1502 1501 1499 1498 1497 1495 1493 1491 1489 1486
1413 1418 1425 1431 1438 1443 1447 1452 1454 1460 1465 1468 1471 1474 1477 1480 1482 1485 1487 1489 1491 1492 1493 1494 1496 1498 1499 1499 1498 1498 1500 1499 1498 1497 1495 1494 1494 1492 1491 1489 1487 1485 1483
1410 1416 1423 1429 1436 1439 1444 1444 1451 1456 1461 1464 1467 1470 1473 1476 1479 1481 1483 1484 1486 1488 1488 1491 1492 1493 1494 1494 1494 1495 1494 1494 1493 1492 1491 1489 1488 1487 1485 1484 1482 1479 1476
1410 1412 1418 1425 1432 1437 1441 1448 1449 1453 1458 1461 1464 1467 1471 1473 1474 1476 1477 1480 1482 1483 1485 1486 1486 1487 1488 1489 1491 1491 1490 1490 1490 1489 1488 1486 1485 1483 1482 1479 1476 1473 1470
1412 1413 1418 1426 1432 1436 1439 1444 1448 1451 1456 1459 1462 1464 1465 1465 1468 1471 1473 1476 1478 1479 1481 1483 1484 1485 1485 1485 1486 1486 1486 1486 1486 1485 1485 1483 1481 1480 1477 1475 1473 1470 1467
1411 1416 1420 1425 1430 1436 1440 1443 1448 1451 1453 1456 1460 1462 1464 1464 1466 1468 1470 1472 1475 1476 1478 1480 1482 1483 1483 1482 1483 1483 1483 1482 1482 1482 1480 1479 1478 1476 1474 1472 1470 1467 1464
1410 1414 1419 1428 1432 1437 1438 1442 1446 1449 1451 1455 1457 1459 1461 1462 1464 1466 1470 1471 1474 1475 1477 1479 1480 1480 1480 1480 1480 1480 1480 1480 1479 1478 1477 1476 1475 1473 1471 1469 1467 1464 1461
1414 1417 1419 1428 1426 1442 1443 1442 1444 1445 1451 1454 1455 1457 1459 1461 1463 1465 1466 1470 1472 1474 1475 1475 1477 1478 1478 1477 1477 1477 1476 1475 1474 1474 1473 1472 1472 1470 1468 1467 1464 1461 1458
1420 1423 1426 1427 1429 1430 1445 1444 1445 1445 1449 1452 1454 1456 1457 1461 1461 1462 1464 1467 1469 1472 1473 1474 1474 1474 1474 1474 1473 1472 1472 1471 1471 1471 1470 1469 1469 1468 1466 1464 1462 1459 1456
1419 1422 1424 1430 1428 1435 1441 1442 1444 1444 1447 1451 1452 1454 1456 1459 1462 1462 1462 1464 1467 1469 1470 1470 1472 1471 1470 1470 1470 1469 1469 1469 1468 1468 1468 1468 1467 1466 1464 1462 1460 1457 1454
1423 1424 1422 1425 1431 1436 1438 1439 1441 1442 1444 1447 1448 1450 1453 1456 1459 1460 1461 1462 1464 1467 1468 1469 1469 1469 1469 1468 1467 1466 1466 1467 1467 1466 1466 1465 1465 1464 1462 1460 1458 1455 1452
1421 1423 1423 1425 1427 1432 1435 1437 1440 1441 1441 1443 1446 1447 1451 1455 1457 1458 1458 1461 1462 1464 1465 1466 1466 1467 1467 1466 1465 1464 1464 1464 1464 1463 1463 1463 1463 1462 1460 1458 1456 1454 1451
1417 1422 1422 1424 1426 1428 1433 1436 1437 1438 1440 1442 1443 1444 1447 1451 1454 1455 1456 1458 1459 1460 1461 1463 1463 1464 1464 1462 1461 1461 1461 1462 1460 1459 1460 1460 1460 1460 1458 1457 1455 1452 1450
1420 1419 1423 1424 1428 1431 1432 1433 1435 1435 1439 1441 1440 1442 1445 1447 1450 1452 1452 1454 1455 1457 1458 1460 1460 1461 1460 1459 1459 1458 1458 1458 1457 1457 1457 1458 1457 1458 1456 1455 1454 1451 1449
1418 1420 1422 1425 1427 1430 1430 1434 1433 1434 1438 1437 1438 1440 1443 1445 1447 1448 1449 1450 1451 1452 1453 1455 1456 1456 1455 1456 1456 1454 1455 1456 1455 1455 1455 1455 1454 1455 1455 1453 1452 1450 1448
1418 1419 1424 1427 1428 1427 1429 1431 1430 1433 1434 1435 1435 1436 1439 1440 1442 1443 1444 1445 1446 1447 1448 1449 1450 1451 1452 1451 1451 1451 1452 1452 1452 1452 1452 1452 1452 1453 1452 1451 1451 1449 1447